KNCWAYNE6 Weather Reports


time (UTC)temp
F
wind
direction
speed
knots
gust
knots
rain 1hr
in
rain 24hr
in
rain mn
in
humidity
%
barometer
mb
20260505153017 68 5 1.7 9.6 0.00 0.00 0.00 29 1018.7
20260505151521 67 22 2.6 9.6 0.00 0.00 0.00 32 1019.0
20260505124525 57 153 0.0 0.0 0.00 0.00 0.00 49 1019.0
20260505123025 53 153 0.0 0.0 0.00 0.00 0.00 56 1019.0
20260505121514 51 153 0.0 0.0 0.00 0.00 0.00 60 1018.9
20260505120018 48 161 0.0 0.0 0.00 0.00 0.00 62 1018.8
20260505114521 47 161 0.0 0.0 0.00 0.00 0.00 63 1018.7
20260505113022 47 161 0.0 0.0 0.00 0.00 0.00 62 1018.4
20260505111534 47 161 0.0 0.0 0.00 0.00 0.00 61 1018.4
20260505101524 52 102 0.0 1.7 0.00 0.00 0.00 52 1018.2
20260505100031 53 102 0.0 1.7 0.00 0.00 0.00 50 1018.3
20260505094519 54 164 0.9 5.2 0.00 0.00 0.00 49 1018.1
20260505093022 54 221 0.9 3.5 0.00 0.00 0.00 48 1017.9
20260505091528 54 229 1.7 7.0 0.00 0.00 0.00 47 1017.9
20260505090028 54 228 2.6 6.1 0.00 0.00 0.00 49 1017.9
20260505084528 54 304 0.9 6.1 0.00 0.00 0.00 48 1017.9
20260505083022 55 244 0.9 5.2 0.00 0.00 0.00 47 1017.9
20260505081537 54 308 0.9 5.2 0.00 0.00 0.00 48 1017.8
20260505080028 54 254 0.9 6.1 0.00 0.00 0.00 48 1017.8
20260505074529 53 226 0.0 6.1 0.00 0.00 0.00 50 1017.7
20260505073041 53 224 0.9 3.5 0.00 0.00 0.00 51 1017.6
20260505071543 53 226 1.7 6.1 0.00 0.00 0.00 51 1017.5
20260505070007 52 250 0.0 2.6 0.00 0.00 0.00 53 1017.6
20260505064519 52 219 0.0 2.6 0.00 0.00 0.00 53 1017.7
20260505063016 52 228 0.0 0.0 0.00 0.00 0.00 53 1017.8
20260505061519 52 229 0.0 1.7 0.00 0.00 0.00 53 1017.9
20260505060025 53 229 0.0 2.6 0.00 0.00 0.00 53 1017.9
20260505054508 53 229 0.0 3.5 0.00 0.00 0.00 52 1018.0
20260505053019 53 230 0.9 2.6 0.00 0.00 0.00 52 1018.2
20260505051520 54 231 0.0 2.6 0.00 0.00 0.00 52 1018.2
20260505041515 56 230 0.0 2.6 0.00 0.00 0.00 49 1018.2
20260505040032 56 286 0.9 7.0 0.00 0.00 0.00 47 1018.2
20260505034523 56 237 0.9 4.3 0.00 0.00 0.00 49 1018.4
20260505033028 57 213 0.0 3.5 0.00 0.00 0.00 48 1018.5
20260505031512 57 238 0.9 6.1 0.00 0.00 0.00 47 1018.5
20260505030023 56 217 0.0 1.7 0.00 0.00 0.00 49 1018.6
20260505024520 57 217 0.0 1.7 0.00 0.00 0.00 48 1018.6
20260505023024 58 217 0.0 0.9 0.00 0.00 0.00 46 1018.5
20260505021526 59 217 0.0 0.0 0.00 0.00 0.00 44 1018.4
20260505020013 60 217 0.0 1.7 0.00 0.00 0.00 44 1018.2
20260505014517 62 217 0.0 2.6 0.00 0.00 0.00 43 1018.2
20260505013020 63 219 0.0 2.6 0.00 0.00 0.00 41 1018.1
20260505011524 63 98 0.9 6.1 0.00 0.00 0.00 39 1017.8
20260505010027 64 167 0.9 5.2 0.00 0.00 0.00 38 1017.6
20260505004514 65 184 1.7 8.7 0.00 0.00 0.00 37 1017.3
20260505003020 66 165 0.9 5.2 0.00 0.00 0.00 36 1017.2
20260505001521 67 169 0.9 7.0 0.00 0.00 0.00 34 1017.0
20260505000028 68 148 0.0 7.0 0.00 0.00 0.00 34 1016.8
20260504234527 69 149 0.0 2.6 0.00 0.00 0.00 32 1016.7
20260504233013 70 148 2.6 7.8 0.00 0.00 0.00 31 1016.4
20260504231520 70 325 0.9 8.7 0.00 0.00 0.00 30 1016.5
20260504230026 72 94 0.9 7.8 0.00 0.00 0.00 28 1016.2
20260504224528 73 168 2.6 11.3 0.00 0.00 0.00 26 1016.1
20260504223025 73 188 2.6 10.4 0.00 0.00 0.00 23 1016.0
20260504221522 73 149 1.7 8.7 0.00 0.00 0.00 17 1016.0
20260504220024 73 51 1.7 8.7 0.00 0.00 0.00 17 1016.0
20260504214526 73 32 2.6 9.6 0.00 0.00 0.00 17 1016.2
20260504213028 74 347 5.2 11.3 0.00 0.00 0.00 18 1016.0
20260504211528 74 344 4.3 11.3 0.00 0.00 0.00 18 1016.1
20260504210024 75 292 7.8 15.6 0.00 0.00 0.00 17 1016.1
20260504204526 75 51 3.5 14.8 0.00 0.00 0.00 20 1016.1
20260504203026 75 223 2.6 12.2 0.00 0.00 0.00 17 1016.4
20260504201510 74 46 2.6 10.4 0.00 0.00 0.00 20 1016.4
20260504200029 74 218 3.5 9.6 0.00 0.00 0.00 19 1016.6
20260504194521 74 19 1.7 13.0 0.00 0.00 0.00 18 1016.9
20260504193007 74 314 2.6 9.6 0.00 0.00 0.00 18 1017.3
20260504191520 74 91 5.2 10.4 0.00 0.00 0.00 17 1017.4
20260504190013 74 38 0.9 9.6 0.00 0.00 0.00 17 1017.6
20260504184519 75 98 0.9 7.8 0.00 0.00 0.00 17 1017.7
20260504183035 74 203 0.9 8.7 0.00 0.00 0.00 15 1017.8
20260504181507 74 351 2.6 8.7 0.00 0.00 0.00 18 1017.7
20260504180012 73 117 2.6 8.7 0.00 0.00 0.00 20 1017.8
20260504174519 73 350 2.6 7.8 0.00 0.00 0.00 22 1018.1
20260504173023 74 171 0.9 4.3 0.00 0.00 0.00 20 1018.4
20260504171524 73 319 1.7 4.3 0.00 0.00 0.00 22 1018.6